Content
SEND FEEDBACK

Daily
Averages
Monthly
Summary
Canada

CYPRESS HILLS, SASKATCHEWAN


Home > North America > Canada > Saskatchewan
Elevation: 3924 feet     Latitude: 49 40N     Longitude: 109 28W

WEATHER
 
SELECT A DAY
Number of Records: 138,361;   Date Range: 1/1/95 - 7/20/14
 
SHARE

PRINT THIS DATA

[ ← Previous Day ]
WEATHER ALMANAC - JANUARY 31, 2013
[ Next Day → ]
[ °C ]   °F
Weather ElementAverageHighLow
Temperature2.7 °F30.4 °F (11:00 pm)-18 °F (12:00 am)
Dewpoint-1.8 °F23.9 °F (11:00 pm)-23.8 °F (12:00 am)
Humidity81 %89 % (6:00 pm)68 % (6:00 am)
Barometer30.21 in30.33 in (4:00 am)30.00 in (11:00 pm)
Wind Speed5.4 mph9.2 mph (12:00 am)
Weather ElementAverage
Wind DirectionWSW (262 °)

Weather ElementTotal
Precipitation---
Heating Degree Days58.8 (Base 65)
Averaged from 25 records on January 31, 2013
WEATHER CONDITIONS BREAKOUT
WIND DIRECTION BREAKOUT
WEATHER BY HOUR - JANUARY 31, 2013
[ °C ]   °F
Local TimeTemperatureDewpointHumidityBarometerVisibilityWind DirectionWind SpeedGust SpeedPrecipitationEventsConditions
12:00 AM-18.0 °F-23.8 °F75 %30.26 inNNW (340°)9.2 mph
1:00 AM-17.9 °F-23.6 °F75 %30.30 inNNW (340°)4.6 mph
2:00 AM-17.0 °F-22.5 °F76 %30.32 inNW (320°)4.6 mph
3:00 AM-17.0 °F-22.5 °F76 %30.32 inWest (280°)3.5 mph
4:00 AM-13.7 °F-18.9 °F77 %30.33 inWNW (300°)2.3 mph
5:00 AM-10.1 °F-15.0 °F79 %30.33 inWSW (250°)4.6 mph
6:00 AM-9.2 °F-13.9 °F80 %30.33 inWSW (240°)6.9 mph
6:00 AM-9.0 °F-14.0 °F68 %30.33 inWSW (240°)6.9 mph
7:00 AM-7.1 °F-11.6 °F81 %30.32 inWSW (240°)4.6 mph
8:00 AM-3.8 °F-8.0 °F82 %30.31 inSW (230°)4.6 mph
10:00 AM-2.9 °F-7.1 °F82 %30.30 inSSW (210°)5.8 mph
11:00 AM-4.5 °F-8.7 °F82 %30.29 inSW (220°)9.2 mph
12:00 PM-4.2 °F-8.3 °F82 %30.28 inSW (220°)8.1 mph
1:00 PM2.8 °F-0.8 °F85 %30.23 inSW (230°)8.1 mph
2:00 PM2.8 °F-0.9 °F84 %30.20 inSW (220°)8.1 mph
3:00 PM2.1 °F-1.7 °F84 %30.18 inSW (230°)6.9 mph
4:00 PM6.8 °F3.4 °F86 %30.15 inWSW (240°)3.5 mph
5:00 PM15.3 °F12.0 °F87 %30.12 inWSW (250°)3.5 mph
6:00 PM20.3 °F17.4 °F89 %30.08 inWest (260°)3.5 mph
6:00 PM20.0 °F17.0 °F85 %30.08 inWest (260°)3.5 mph
7:00 PM25.2 °F21.6 °F86 %30.05 inWest (280°)4.6 mph
8:00 PM24.4 °F20.5 °F85 %30.04 inWest (260°)3.5 mph
9:00 PM25.0 °F20.7 °F84 %30.03 inWest (280°)3.5 mph
10:00 PM26.8 °F20.8 °F78 %30.02 inNW (310°)3.5 mph
11:00 PM30.4 °F23.9 °F77 %30.00 inWNW (300°)6.9 mph
Hourly data recorded from CWVP, located miles away from Cypress Hills, Saskatchewan







STORIES FROM OUR PARTNERS